Regional Weather Roundup
Issued by NWS

Home | Current Version | Previous Version | Graphics & Text | Print | Product List | Glossary On
Versions: 1 2 3 4 5 6 7 8 9 10 11 12 13 14 15 16 17 18 19 20 21 22 23 24 25 26 27 28 29 30 31 32 33 34 35 36 37 38 39 40 41 42 43 44 45 46 47 48 49 50
000
ASUS43 KFSD 212010
RWRSD

WEATHER ROUNDUP FOR SOUTH DAKOTA
NATIONAL WEATHER SERVICE SIOUX FALLS SD
300 PM CDT MON JUL 21 2014

NOTE: "FAIR" INDICATES FEW OR NO CLOUDS BELOW 12,000 FEET WITH NO
SIGNIFICANT WEATHER AND/OR OBSTRUCTIONS TO VISIBILITY.


SDZ001>005-009-010-012>017-212100-
NORTHWEST AND NORTH CENTRAL SOUTH DAKOTA

CITY           SKY/WX    TMP DP  RH WIND       PRES   REMARKS
BUFFALO          N/A     91  59  33 W17G25    29.76S
FAITH            N/A     93  63  36 W17G24    29.77F
MOBRIDGE       SUNNY     88  75  65 SE17      29.70F HX  97
$$

SDZ012>016-024>037-041>051-057-063-072>074-212100-
SOUTHWEST AND SOUTH CENTRAL SOUTH DAKOTA

CITY           SKY/WX    TMP DP  RH WIND       PRES   REMARKS
RAPID CTY ARPT SUNNY     94  56  27 N12       29.87R
PIERRE         SUNNY     99  70  38 SE8       29.69F HX 106
CUSTER         MOSUNNY   90  40  17 W26G33    30.06F
ELLSWORTH AFB  MOSUNNY   93  54  26 N9        29.86S
PHILIP         SUNNY    100  54  21 NW20G28   29.77S HX  98
PINE RIDGE     SUNNY     97  52  21 W14       29.91S
WINNER         FAIR     108  52  15 W15G21    29.76F HX 105
$$

SDZ004>011-016>023-039-040-212100-
NORTHEAST SOUTH DAKOTA

CITY           SKY/WX    TMP DP  RH WIND       PRES   REMARKS
ABERDEEN       CLOUDY    84  76  76 SE21G33   29.71F
WATERTOWN      CLOUDY    84  76  76 S12       29.82R
SISSETON         N/A     83  77  82 S10       29.79R
$$

SDZ017-020-022-023-036>040-048>070-212100-
SOUTHEAST SOUTH DAKOTA

CITY           SKY/WX    TMP DP  RH WIND       PRES   REMARKS
SIOUX FALLS    PTSUNNY   84  75  74 S15       29.83S
HURON          CLOUDY    88  77  69 SE13G23   29.73F HX 100
CHAMBERLAIN    SUNNY     98  72  42 S6        29.74F HX 106
MITCHELL       PTSUNNY   87  77  72 SE13G21   29.76F HX  99
YANKTON        PTSUNNY   90  79  70 SE9G16    29.79F HX 105
$$

ABBREVIATIONS USED IN REMARKS
   TC - TEMPERATURE IN CELSIUS
  WCI - WIND CHILL INDEX
   HX - HEAT INDEX
  VSB - VISIBILITY




USA.gov is the U.S. government's official web portal to all federal, state and local government web resources and services.